Date String (YYYY-MM-DD hh:mm:ss) UTC,Instrument flags,Ambient pressure (hPa),Sample flow (lpm),Bypass flow (lpm),Sample temperature (°C),Ambient temperature (°C),ASC tube jacket temperature (°C),LED temperature (°C),Box temperature (°C),Sample RH (%),Span deviation,Mass concentration (μg/m³),Mass concentration (μg/m³),Mass concentration (μg/m³)
DateTimeUTC,F1_M11,P_M11,Q1_M11,Q2_M11,T1_M11,T2_M11,T3_M11,T4_M11,T5_M11,U1_M11,ZSPAN_M11,X0_M11,X2_M11,X1_M11
2022-05-13 10:00:00,,0825.2,5.01,0.00,28.2,27.4,00.0,37.2,30.0,07.8,0000.0,0006.30,0002.57,0001.20
2022-05-13 10:01:00,,0825.2,4.99,0.00,28.2,27.4,00.0,37.2,29.9,07.8,0000.0,0006.35,0002.60,0001.21
2022-05-13 10:02:00,,0825.2,5.00,0.00,28.2,27.3,00.0,37.2,29.9,07.7,0000.0,0006.85,0002.62,0001.22
2022-05-13 10:03:00,,0825.2,4.99,0.00,28.1,27.3,00.0,37.2,29.9,08.0,0000.0,0007.02,0002.65,0001.21
2022-05-13 10:04:00,,0825.1,5.01,0.00,28.1,27.3,00.0,37.2,29.8,08.1,0000.0,0006.90,0002.66,0001.21
2022-05-13 10:05:00,,0825.1,4.99,0.00,28.1,27.3,00.0,37.1,29.8,08.1,0000.0,0006.59,0002.62,0001.22
2022-05-13 10:06:00,,0825.1,5.01,0.00,28.1,27.3,00.0,37.1,29.8,07.9,0000.0,0006.94,0002.58,0001.23
2022-05-13 10:07:00,,0825.1,5.00,0.00,28.1,27.3,00.0,37.1,29.9,07.9,0000.0,0007.44,0002.61,0001.22
2022-05-13 10:08:00,,0825.1,5.01,0.00,28.1,27.3,00.0,37.1,29.9,07.9,0000.0,0007.48,0002.59,0001.23
2022-05-13 10:09:00,,0825.0,4.98,0.00,28.1,27.3,00.0,37.1,29.9,07.5,0000.0,0007.25,0002.57,0001.23
2022-05-13 10:10:00,,0825.1,4.99,0.00,28.1,27.3,00.0,37.1,29.9,07.3,0000.0,0007.25,0002.54,0001.22
2022-05-13 10:11:00,,0825.1,5.01,0.00,28.1,27.3,00.0,37.1,29.9,07.1,0000.0,0007.52,0002.56,0001.22
2022-05-13 10:12:00,,0825.1,4.99,0.00,28.1,27.3,00.0,37.1,29.8,07.1,0000.0,0007.82,0002.56,0001.24
2022-05-13 10:13:00,,0825.1,5.00,0.00,28.1,27.3,00.0,37.1,29.8,07.1,0000.0,0007.40,0002.50,0001.24
2022-05-13 10:14:00,,0825.2,5.01,0.00,28.0,27.2,00.0,37.1,29.8,07.2,0000.0,0007.28,0002.49,0001.25
2022-05-13 10:15:00,,0825.2,5.00,0.00,28.0,27.2,00.0,37.1,29.7,07.5,0000.0,0007.27,0002.45,0001.26
2022-05-13 10:16:00,,0825.1,5.00,0.00,28.0,27.2,00.0,37.0,29.7,07.6,0000.0,0007.18,0002.42,0001.27
2022-05-13 10:17:00,,0825.1,4.99,0.00,28.0,27.2,00.0,37.0,29.7,07.5,0000.0,0007.69,0002.46,0001.28
2022-05-13 10:18:00,,0825.1,5.01,0.00,28.0,27.2,00.0,37.0,29.8,07.5,0000.0,0007.64,0002.50,0001.28
2022-05-13 10:19:00,,0825.1,5.00,0.00,28.0,27.2,00.0,37.0,29.8,07.3,0000.0,0007.52,0002.46,0001.29
2022-05-13 10:20:00,,0825.1,4.99,0.00,28.0,27.2,00.0,37.0,29.8,07.2,0000.0,0007.52,0002.44,0001.31
2022-05-13 10:21:00,,0825.1,5.01,0.00,28.0,27.2,00.0,37.0,29.7,07.1,0000.0,0007.29,0002.43,0001.32
2022-05-13 10:22:00,,0825.2,4.99,0.00,28.0,27.2,00.0,37.0,29.7,07.0,0000.0,0006.52,0002.31,0001.32
2022-05-13 10:23:00,,0825.1,5.01,0.00,27.9,27.1,00.0,37.0,29.7,07.1,0000.0,0006.15,0002.30,0001.33
2022-05-13 10:24:00,,0825.1,4.99,0.00,27.9,27.1,00.0,37.0,29.7,07.1,0000.0,0006.93,0002.32,0001.33
2022-05-13 10:25:00,,0825.0,5.01,0.00,27.9,27.1,00.0,37.0,29.7,07.1,0000.0,0007.00,0002.34,0001.34
2022-05-13 10:26:00,,0825.1,5.00,0.00,27.9,27.1,00.0,36.9,29.7,06.9,0000.0,0007.14,0002.38,0001.34
2022-05-13 10:27:00,,0825.1,5.00,0.00,27.9,27.1,00.0,36.9,29.7,07.1,0000.0,0007.14,0002.38,0001.33
2022-05-13 10:28:00,,0825.2,5.00,0.00,27.9,27.1,00.0,36.9,29.7,07.1,0000.0,0006.31,0002.42,0001.33
2022-05-13 10:29:00,,0825.1,5.00,0.00,27.9,27.1,00.0,36.9,29.7,07.1,0000.0,0005.59,0002.44,0001.34
2022-05-13 10:30:00,,0825.1,5.01,0.00,27.9,27.1,00.0,36.9,29.7,07.0,0000.0,0005.65,0002.44,0001.34
2022-05-13 10:31:00,,0825.1,5.01,0.00,27.9,27.1,00.0,36.9,29.7,07.1,0000.0,0005.61,0002.46,0001.34
2022-05-13 10:32:00,,0825.1,4.99,0.00,27.9,27.2,00.0,36.9,29.7,07.0,0000.0,0005.86,0002.54,0001.34
2022-05-13 10:33:00,,0825.1,5.00,0.00,27.9,27.2,00.0,36.9,29.8,06.9,0000.0,0006.66,0002.67,0001.35
2022-05-13 10:34:00,,0825.1,5.00,0.00,27.9,27.2,00.0,36.9,29.8,07.0,0000.0,0007.57,0002.69,0001.35
2022-05-13 10:35:00,,0825.1,5.01,0.00,27.9,27.2,00.0,36.9,29.8,07.1,0000.0,0007.39,0002.63,0001.34
2022-05-13 10:36:00,,0825.2,4.99,0.00,27.9,27.2,00.0,36.9,29.8,07.1,0000.0,0007.82,0002.57,0001.34
2022-05-13 10:37:00,,0825.2,5.00,0.00,27.9,27.2,00.0,36.9,29.7,07.0,0000.0,0007.95,0002.53,0001.34
2022-05-13 10:38:00,,0825.2,5.00,0.00,27.9,27.1,00.0,36.9,29.7,07.0,0000.0,0007.98,0002.52,0001.34
2022-05-13 10:39:00,,0825.2,5.01,0.00,27.9,27.2,00.0,36.9,29.7,07.0,0000.0,0007.97,0002.47,0001.35
2022-05-13 10:40:00,,0825.1,5.00,0.00,27.9,27.2,00.0,36.9,29.7,07.0,0000.0,0007.86,0002.38,0001.33
2022-05-13 10:41:00,,0825.1,4.99,0.00,27.9,27.2,00.0,36.9,29.8,07.0,0000.0,0007.79,0002.36,0001.33
2022-05-13 10:42:00,,0825.2,5.01,0.00,27.9,27.2,00.0,36.9,29.8,07.2,0000.0,0007.83,0002.39,0001.34
2022-05-13 10:43:00,,0825.3,4.99,0.00,28.0,27.2,00.0,36.9,29.8,07.3,0000.0,0007.69,0002.30,0001.33
2022-05-13 10:44:00,,0825.3,5.01,0.00,27.9,27.2,00.0,36.9,29.8,07.4,0000.0,0007.50,0002.22,0001.32
2022-05-13 10:45:00,,0825.3,4.99,0.00,27.9,27.2,00.0,36.9,29.8,07.4,0000.0,0006.69,0002.18,0001.31
2022-05-13 10:46:00,,0825.4,4.99,0.00,27.9,27.2,00.0,36.9,29.8,07.4,0000.0,0006.08,0002.19,0001.31
2022-05-13 10:47:00,,0825.4,5.01,0.00,27.9,27.2,00.0,36.9,29.8,07.4,0000.0,0005.35,0002.20,0001.30
2022-05-13 10:48:00,,0825.4,4.99,0.00,27.9,27.2,00.0,36.9,29.7,07.4,0000.0,0005.09,0002.25,0001.29
2022-05-13 10:49:00,,0825.3,5.00,0.00,27.9,27.2,00.0,36.9,29.7,07.4,0000.0,0005.62,0002.28,0001.29
2022-05-13 10:50:00,,0825.3,4.99,0.00,27.9,27.1,00.0,36.9,29.7,07.4,0000.0,0005.84,0002.30,0001.28
2022-05-13 10:51:00,,0825.3,5.01,0.00,27.9,27.1,00.0,36.9,29.6,07.4,0000.0,0005.95,0002.28,0001.27
2022-05-13 10:52:00,,0825.3,5.00,0.00,27.8,27.1,00.0,36.9,29.6,07.4,0000.0,0006.35,0002.33,0001.27
2022-05-13 10:53:00,,0825.3,5.01,0.00,27.8,27.1,00.0,36.8,29.6,07.4,0000.0,0006.53,0002.33,0001.25
2022-05-13 10:54:00,,0825.3,5.00,0.00,27.8,27.0,00.0,36.8,29.6,07.4,0000.0,0006.71,0002.36,0001.25
2022-05-13 10:55:00,,0825.3,5.00,0.00,27.8,27.0,00.0,36.8,29.6,07.5,0000.0,0006.79,0002.39,0001.26
2022-05-13 10:56:00,,0825.3,4.99,0.00,27.8,27.0,00.0,36.8,29.6,07.5,0000.0,0006.73,0002.45,0001.26
2022-05-13 10:57:00,,0825.3,5.01,0.00,27.8,27.0,00.0,36.8,29.6,07.6,0000.0,0008.27,0002.49,0001.27
2022-05-13 10:58:00,,0825.3,4.99,0.00,27.8,27.0,00.0,36.8,29.6,07.6,0000.0,0008.32,0002.50,0001.27
2022-05-13 10:59:00,,0825.3,5.01,0.00,27.8,27.0,00.0,36.8,29.5,07.6,0000.0,0008.26,0002.48,0001.27
